Location: Newark
(41.8083°N, 72.2500°W)
Time: 02:13:38
(UTC+00:00)

Vanguard 1 Rocket - Pass Details

Date: 12 December 2021
Orbit: 651 x 4224 km, 34.3° (Epoch: 15 January)

Event Time Altitude Azimuth Distance (km) Brightness Sun altitude
Exits shadow 10:53:34 12° 268° (W) 4,692 10.4 -13.3°
Maximum altitude 11:06:18 40° 207° (SSW) 4,189 10.7 -11.0°
Drops below altitude 10° 11:27:21 10° 148° (SSE) 7,343 13.0 -7.4°
Sets 11:34:04 0° 142° (SE) 8,460 13.7 -6.3°
